Location: St. Louis
(38.6270°N, 90.1994°W)
Time: 12:56:09
(UTC-06:00)

deb Explorer IX - Pass Details

Date: 04 December 2021
Orbit: 544 x 1082 km, 38.8° (Epoch: 16 January)

Event Time Altitude Azimuth Distance (km) Brightness Sun altitude
Rises 14:20:34 0° 280° (W) 2,738 ? 19.7°
Reaches altitude 10° 14:22:55 10° 274° (W) 1,815 ? 19.4°
Maximum altitude 14:26:48 43° 202° (SSW) 768 ? 19.0°
Drops below altitude 10° 14:30:43 10° 130° (SE) 1,827 ? 18.5°
Sets 14:33:05 0° 124° (ESE) 2,759 ? 18.2°
